Dades meteomassalio
Diari Summary for Juliol 28, 2017 Units:  Metric    English   Both
« Previous Day
Next Day »
Diari Semanal Mensual Anual Personalitzat
  Maxima: Minima: Mijana:
Temperatura: 34.7 °C 18.7 °C 27.3 °C
Rosada: 20.1 °C 13.4 °C 16.8 °C
Humitat: 75 % 38 % 54 %
Velocitat del vent: 18.5 km/h 0.0 km/h 4.2 km/h
Racha vent: 18.5 km/h - -
Vent:- - SE
Pressio: 1015.1 hPa 1011.4 hPa -
Pluja: 0.0 mm    
Historical Graphs
 
 
Tabular Data for Juliol 28, 2017
Time Temperature Dew Point Pressure Wind Wind Speed Wind Gust Humidity Rainfall Rate (Hourly) solar Conditions
00:03 28.3 °C 13.4 °C 1011.4 hPa Calm     40 % 0.0 mm 0.0 W/m2 CLR
00:09 28.1 °C 13.6 °C 1011.4 hPa Calm     41 % 0.0 mm 0.0 W/m2 CLR
00:14 27.9 °C 13.8 °C 1011.4 hPa Calm     42 % 0.0 mm 0.0 W/m2 CLR
00:19 27.8 °C 13.7 °C 1011.4 hPa Calm     42 % 0.0 mm 0.0 W/m2 CLR
00:24 27.6 °C 13.9 °C 1011.4 hPa Calm     43 % 0.0 mm 0.0 W/m2 CLR
00:29 27.6 °C 13.9 °C 1011.4 hPa Calm     43 % 0.0 mm 0.0 W/m2 CLR
00:34 27.4 °C 14.1 °C 1011.4 hPa Calm     44 % 0.0 mm 0.0 W/m2 CLR
00:39 27.2 °C 14.3 °C 1011.4 hPa Calm     45 % 0.0 mm 0.0 W/m2 CLR
00:44 26.9 °C 14.0 °C 1011.4 hPa Calm     45 % 0.0 mm 0.0 W/m2 CLR
00:49 26.7 °C 14.2 °C 1011.4 hPa Calm     46 % 0.0 mm 0.0 W/m2 CLR
00:54 26.6 °C 14.0 °C 1011.4 hPa Calm     46 % 0.0 mm 0.0 W/m2 CLR
00:59 26.7 °C 14.1 °C 1011.4 hPa SW 7.4 km/h 7.4 km/h 46 % 0.0 mm 0.0 W/m2 CLR
01:04 26.8 °C 14.2 °C 1011.4 hPa Calm     46 % 0.0 mm 0.0 W/m2 CLR
01:09 26.6 °C 14.4 °C 1011.4 hPa Calm     47 % 0.0 mm 0.0 W/m2 CLR
01:14 26.5 °C 14.6 °C 1011.4 hPa Calm     48 % 0.0 mm 0.0 W/m2 CLR
01:19 26.1 °C 14.2 °C 1011.4 hPa Calm     48 % 0.0 mm 0.0 W/m2 CLR
01:24 25.9 °C 14.7 °C 1011.7 hPa Calm     50 % 0.0 mm 0.0 W/m2 CLR
01:29 25.6 °C 14.4 °C 1011.7 hPa Calm     50 % 0.0 mm 0.0 W/m2 CLR
01:34 25.3 °C 14.4 °C 1011.7 hPa Calm     51 % 0.0 mm 0.0 W/m2 CLR
01:39 25.1 °C 14.5 °C 1011.7 hPa Calm     52 % 0.0 mm 0.0 W/m2 CLR
01:44 24.8 °C 14.3 °C 1011.7 hPa Calm     52 % 0.0 mm 0.0 W/m2 CLR
01:49 24.7 °C 14.5 °C 1011.7 hPa Calm     53 % 0.0 mm 0.0 W/m2 CLR
01:54 24.5 °C 14.3 °C 1011.7 hPa Calm     53 % 0.0 mm 0.0 W/m2 CLR
01:59 24.3 °C 14.1 °C 1012.1 hPa Calm     53 % 0.0 mm 0.0 W/m2 CLR
02:04 24.3 °C 13.8 °C 1011.7 hPa Calm     52 % 0.0 mm 0.0 W/m2 CLR
02:09 24.4 °C 14.2 °C 1011.7 hPa Calm     53 % 0.0 mm 0.0 W/m2 CLR
02:14 24.2 °C 14.1 °C 1011.7 hPa Calm     53 % 0.0 mm 0.0 W/m2 CLR
02:19 24.1 °C 14.2 °C 1012.1 hPa Calm     54 % 0.0 mm 0.0 W/m2 CLR
02:24 23.9 °C 14.1 °C 1012.1 hPa Calm     54 % 0.0 mm 0.0 W/m2 CLR
02:29 24.1 °C 14.2 °C 1012.1 hPa Calm     54 % 0.0 mm 0.0 W/m2 CLR
02:34 24.0 °C 14.1 °C 1012.1 hPa Calm     54 % 0.0 mm 0.0 W/m2 CLR
02:39 23.8 °C 14.2 °C 1012.4 hPa Calm     55 % 0.0 mm 0.0 W/m2 CLR
02:44 23.7 °C 14.2 °C 1012.4 hPa Calm     55 % 0.0 mm 0.0 W/m2 CLR
02:49 23.8 °C 14.2 °C 1012.4 hPa Calm     55 % 0.0 mm 0.0 W/m2 CLR
02:54 24.1 °C 14.5 °C 1012.4 hPa NW 3.7 km/h 3.7 km/h 55 % 0.0 mm 0.0 W/m2 CLR
02:59 24.4 °C 14.6 °C 1012.4 hPa Calm     54 % 0.0 mm 0.0 W/m2 CLR
03:04 24.6 °C 14.6 °C 1012.4 hPa Calm     54 % 0.0 mm 0.0 W/m2 CLR
03:09 24.7 °C 14.8 °C 1012.4 hPa WNW 3.2 km/h 3.2 km/h 54 % 0.0 mm 0.0 W/m2 CLR
03:14 24.9 °C 15.0 °C 1012.4 hPa NNW 5.6 km/h 5.6 km/h 54 % 0.0 mm 0.0 W/m2 CLR
03:19 24.9 °C 15.3 °C 1012.4 hPa WNW 6.4 km/h 6.4 km/h 55 % 0.0 mm 0.0 W/m2 CLR
03:24 24.9 °C 15.5 °C 1012.4 hPa Calm     56 % 0.0 mm 0.0 W/m2 CLR
03:29 24.7 °C 15.3 °C 1012.8 hPa Calm     56 % 0.0 mm 0.0 W/m2 CLR
03:34 24.5 °C 15.4 °C 1012.4 hPa Calm     57 % 0.0 mm 0.0 W/m2 CLR
03:39 24.4 °C 15.3 °C 1012.4 hPa Calm     57 % 0.0 mm 0.0 W/m2 CLR
03:44 24.3 °C 15.5 °C 1012.4 hPa Calm     58 % 0.0 mm 0.0 W/m2 CLR
03:49 24.1 °C 15.6 °C 1012.8 hPa Calm     59 % 0.0 mm 0.0 W/m2 CLR
03:54 23.9 °C 15.7 °C 1012.8 hPa Calm     60 % 0.0 mm 0.0 W/m2 CLR
03:59 23.9 °C 15.7 °C 1012.8 hPa Calm     60 % 0.0 mm 0.0 W/m2 CLR
04:04 23.6 °C 14.8 °C 1012.8 hPa Calm     58 % 0.0 mm 0.0 W/m2 CLR
04:09 23.1 °C 14.9 °C 1012.8 hPa Calm     60 % 0.0 mm 0.0 W/m2 CLR
04:14 22.8 °C 14.7 °C 1012.8 hPa Calm     60 % 0.0 mm 0.0 W/m2 CLR
04:19 22.5 °C 14.6 °C 1012.8 hPa Calm     61 % 0.0 mm 0.0 W/m2 CLR
04:24 22.2 °C 14.6 °C 1012.8 hPa Calm     62 % 0.0 mm 0.0 W/m2 CLR
04:29 21.9 °C 14.5 °C 1012.8 hPa Calm     63 % 0.0 mm 0.0 W/m2 CLR
04:34 21.7 °C 14.6 °C 1013.1 hPa Calm     64 % 0.0 mm 0.0 W/m2 CLR
04:39 21.4 °C 14.6 °C 1013.1 hPa Calm     65 % 0.0 mm 0.0 W/m2 CLR
04:44 21.3 °C 14.5 °C 1013.1 hPa Calm     65 % 0.0 mm 0.0 W/m2 CLR
04:49 21.3 °C 14.7 °C 1013.1 hPa Calm     66 % 0.0 mm 0.0 W/m2 CLR
04:54 21.2 °C 14.6 °C 1013.1 hPa Calm     66 % 0.0 mm 0.0 W/m2 CLR
04:59 21.0 °C 14.6 °C 1013.1 hPa Calm     67 % 0.0 mm 0.0 W/m2 CLR
05:04 20.8 °C 14.5 °C 1013.1 hPa Calm     67 % 0.0 mm 0.0 W/m2 CLR
05:09 20.7 °C 14.6 °C 1013.4 hPa Calm     68 % 0.0 mm 0.0 W/m2 CLR
05:14 20.5 °C 14.6 °C 1013.4 hPa Calm     69 % 0.0 mm 0.0 W/m2 CLR
05:19 20.5 °C 14.6 °C 1013.4 hPa Calm     69 % 0.0 mm 0.0 W/m2 CLR
05:24 20.4 °C 14.6 °C 1013.4 hPa Calm     69 % 0.0 mm 0.0 W/m2 CLR
05:29 20.3 °C 14.4 °C 1013.4 hPa Calm     69 % 0.0 mm 0.0 W/m2 CLR
05:34 20.2 °C 14.5 °C 1013.4 hPa Calm     70 % 0.0 mm 0.0 W/m2 CLR
05:39 20.1 °C 14.4 °C 1013.4 hPa Calm     70 % 0.0 mm 0.0 W/m2 CLR
05:44 20.1 °C 14.4 °C 1013.4 hPa Calm     70 % 0.0 mm 0.0 W/m2 CLR
05:49 20.1 °C 14.4 °C 1013.4 hPa Calm     70 % 0.0 mm 0.0 W/m2 CLR
05:55 20.1 °C 14.4 °C 1013.4 hPa Calm     70 % 0.0 mm 0.0 W/m2 CLR
06:00 19.9 °C 14.3 °C 1013.4 hPa Calm     70 % 0.0 mm 0.0 W/m2 CLR
06:05 19.8 °C 14.4 °C 1013.8 hPa Calm     71 % 0.0 mm 0.0 W/m2 CLR
06:10 19.7 °C 14.5 °C 1013.8 hPa Calm     72 % 0.0 mm 0.0 W/m2 CLR
06:15 19.5 °C 14.6 °C 1013.8 hPa Calm     73 % 0.0 mm 0.0 W/m2 CLR
06:20 19.5 °C 14.6 °C 1013.8 hPa Calm     73 % 0.0 mm 0.0 W/m2 CLR
06:25 19.4 °C 14.3 °C 1013.8 hPa Calm     72 % 0.0 mm 0.0 W/m2 CLR
06:30 19.3 °C 14.4 °C 1014.1 hPa Calm     73 % 0.0 mm 0.0 W/m2 CLR
06:35 19.2 °C 14.3 °C 1014.1 hPa Calm     73 % 0.0 mm 0.0 W/m2 CLR
06:40 19.2 °C 14.4 °C 1014.1 hPa Calm     74 % 0.0 mm 0.0 W/m2 CLR
06:45 19.1 °C 14.3 °C 1014.1 hPa Calm     74 % 0.0 mm 0.0 W/m2 OVC
06:50 19.0 °C 14.3 °C 1014.1 hPa Calm     74 % 0.0 mm 0.0 W/m2 OVC
06:55 19.0 °C 14.3 °C 1014.1 hPa Calm     74 % 0.0 mm 5.0 W/m2 OVC
07:00 18.9 °C 14.2 °C 1014.1 hPa Calm     74 % 0.0 mm 7.0 W/m2 BKN
07:05 18.8 °C 14.1 °C 1014.1 hPa Calm     74 % 0.0 mm 11.0 W/m2 BKN
07:10 18.8 °C 14.3 °C 1014.1 hPa Calm     75 % 0.0 mm 14.0 W/m2 BKN
07:15 18.7 °C 14.2 °C 1014.4 hPa Calm     75 % 0.0 mm 16.0 W/m2 BKN
07:20 18.7 °C 14.2 °C 1014.4 hPa Calm     75 % 0.0 mm 19.0 W/m2 BKN
07:25 18.8 °C 14.3 °C 1014.4 hPa Calm     75 % 0.0 mm 25.0 W/m2 BKN
07:30 18.9 °C 14.3 °C 1014.4 hPa Calm     75 % 0.0 mm 32.0 W/m2 BKN
07:35 19.1 °C 14.3 °C 1014.4 hPa Calm     74 % 0.0 mm 35.0 W/m2 BKN
07:40 19.2 °C 14.4 °C 1014.4 hPa Calm     74 % 0.0 mm 51.0 W/m2 SCT
07:45 19.3 °C 14.6 °C 1014.4 hPa Calm     74 % 0.0 mm 60.0 W/m2 SCT
07:50 19.5 °C 14.6 °C 1014.4 hPa Calm     73 % 0.0 mm 70.0 W/m2 FEW
07:55 19.7 °C 14.7 °C 1014.4 hPa Calm     73 % 0.0 mm 86.0 W/m2 FEW
08:00 19.9 °C 14.7 °C 1014.8 hPa Calm     72 % 0.0 mm 100.0 W/m2 FEW
08:05 20.3 °C 14.8 °C 1014.8 hPa Calm     71 % 0.0 mm 118.0 W/m2 CLR
08:10 20.6 °C 15.2 °C 1014.8 hPa Calm     71 % 0.0 mm 132.0 W/m2 CLR
08:15 20.9 °C 15.2 °C 1014.8 hPa Calm     70 % 0.0 mm 148.0 W/m2 CLR
08:20 21.1 °C 15.2 °C 1014.8 hPa Calm     69 % 0.0 mm 163.0 W/m2 CLR
08:25 21.2 °C 15.3 °C 1014.8 hPa Calm     69 % 0.0 mm 179.0 W/m2 CLR
08:30 21.5 °C 15.6 °C 1014.8 hPa Calm     69 % 0.0 mm 197.0 W/m2 CLR
08:35 21.9 °C 15.7 °C 1014.8 hPa Calm     68 % 0.0 mm 213.0 W/m2 CLR
08:40 22.2 °C 15.8 °C 1014.8 hPa Calm     67 % 0.0 mm 227.0 W/m2 CLR
08:45 22.7 °C 16.0 °C 1015.1 hPa Calm     66 % 0.0 mm 241.0 W/m2 CLR
08:50 23.1 °C 16.1 °C 1015.1 hPa Calm     65 % 0.0 mm 262.0 W/m2 CLR
08:55 23.2 °C 16.1 °C 1014.8 hPa Calm     64 % 0.0 mm 276.0 W/m2 CLR
09:00 23.4 °C 16.2 °C 1015.1 hPa West 1.9 km/h   64 % 0.0 mm 292.0 W/m2 CLR
09:05 23.9 °C 16.2 °C 1014.8 hPa WNW 13.0 km/h 13.0 km/h 62 % 0.0 mm 308.0 W/m2 CLR
09:10 24.2 °C 16.2 °C 1015.1 hPa NW 14.8 km/h 14.8 km/h 61 % 0.0 mm 322.0 W/m2 CLR
09:15 24.2 °C 16.2 °C 1015.1 hPa NW 16.7 km/h 16.7 km/h 61 % 0.0 mm 338.0 W/m2 CLR
09:20 24.3 °C 16.3 °C 1015.1 hPa NW 11.3 km/h 11.3 km/h 61 % 0.0 mm 353.0 W/m2 CLR
09:25 24.4 °C 16.4 °C 1015.1 hPa WNW 13.0 km/h 13.0 km/h 61 % 0.0 mm 364.0 W/m2 CLR
09:31 24.5 °C 16.5 °C 1015.1 hPa WNW 14.8 km/h 14.8 km/h 61 % 0.0 mm 380.0 W/m2 CLR
09:36 24.6 °C 16.6 °C 1015.1 hPa West 13.0 km/h 13.0 km/h 61 % 0.0 mm 396.0 W/m2 CLR
09:38 24.6 °C 16.6 °C 1015.1 hPa NW 16.1 km/h 16.1 km/h 61 % 0.0 mm 403.0 W/m2 CLR
09:43 24.7 °C 16.4 °C 1015.1 hPa NW 11.1 km/h 11.1 km/h 60 % 0.0 mm 417.0 W/m2 CLR
09:48 24.8 °C 16.5 °C 1015.1 hPa NNW 13.0 km/h 13.0 km/h 60 % 0.0 mm 429.0 W/m2 CLR
09:53 24.8 °C 16.6 °C 1015.1 hPa Calm     60 % 0.0 mm 128.0 W/m2 CLR
09:58 24.9 °C 16.4 °C 1015.1 hPa NNW 5.6 km/h   59 % 0.0 mm 162.0 W/m2 CLR
10:03 25.2 °C 16.6 °C 1015.1 hPa Calm     59 % 0.0 mm 478.0 W/m2 CLR
10:08 25.4 °C 16.6 °C 1015.1 hPa Calm     58 % 0.0 mm 490.0 W/m2 CLR
10:13 25.7 °C 16.6 °C 1015.1 hPa WNW 11.1 km/h 11.1 km/h 57 % 0.0 mm 506.0 W/m2 CLR
10:18 25.7 °C 16.6 °C 1015.1 hPa Calm     57 % 0.0 mm 524.0 W/m2 CLR
10:23 25.9 °C 16.7 °C 1015.1 hPa NNW 13.0 km/h 13.0 km/h 57 % 0.0 mm 536.0 W/m2 CLR
10:28 26.2 °C 16.4 °C 1015.1 hPa WSW 5.6 km/h 5.6 km/h 55 % 0.0 mm 550.0 W/m2 CLR
10:33 26.3 °C 16.2 °C 1015.1 hPa SSW 5.6 km/h 5.6 km/h 54 % 0.0 mm 568.0 W/m2 CLR
10:38 26.3 °C 16.5 °C 1015.1 hPa Calm     55 % 0.0 mm 580.0 W/m2 CLR
10:43 26.4 °C 16.4 °C 1015.1 hPa Calm     54 % 0.0 mm 592.0 W/m2 CLR
10:48 26.7 °C 16.7 °C 1015.1 hPa Calm     54 % 0.0 mm 608.0 W/m2 CLR
10:53 27.0 °C 16.6 °C 1015.1 hPa WNW 7.4 km/h 7.4 km/h 53 % 0.0 mm 619.0 W/m2 CLR
10:58 27.1 °C 16.7 °C 1014.8 hPa North 11.1 km/h 11.1 km/h 53 % 0.0 mm 635.0 W/m2 CLR
11:03 27.1 °C 16.7 °C 1014.8 hPa NNW 9.3 km/h 9.3 km/h 53 % 0.0 mm 647.0 W/m2 CLR
11:08 27.2 °C 16.5 °C 1014.8 hPa Calm     52 % 0.0 mm 657.0 W/m2 CLR
11:13 27.6 °C 16.8 °C 1014.8 hPa WNW 7.4 km/h   52 % 0.0 mm 670.0 W/m2 CLR
11:18 27.9 °C 16.6 °C 1015.1 hPa WSW 3.7 km/h   50 % 0.0 mm 682.0 W/m2 CLR
11:23 28.0 °C 16.6 °C 1015.1 hPa SSW 5.6 km/h 5.6 km/h 50 % 0.0 mm 693.0 W/m2 CLR
11:28 28.1 °C 16.4 °C 1015.1 hPa SSE 5.6 km/h 5.6 km/h 49 % 0.0 mm 707.0 W/m2 CLR
11:33 28.4 °C 16.7 °C 1015.1 hPa Calm     49 % 0.0 mm 714.0 W/m2 CLR
11:34 28.6 °C 16.8 °C 1015.1 hPa Calm     49 % 0.0 mm 717.0 W/m2 CLR
11:39 28.7 °C 16.9 °C 1015.1 hPa Calm     49 % 0.0 mm 728.0 W/m2 CLR
11:44 28.9 °C 16.8 °C 1015.1 hPa WNW 3.7 km/h 3.7 km/h 48 % 0.0 mm 740.0 W/m2 CLR
11:49 28.9 °C 17.2 °C 1015.1 hPa East 11.1 km/h 11.1 km/h 49 % 0.0 mm 747.0 W/m2 CLR
11:54 29.0 °C 16.9 °C 1015.1 hPa Calm     48 % 0.0 mm 754.0 W/m2 CLR
11:59 29.1 °C 17.0 °C 1015.1 hPa Calm     48 % 0.0 mm 765.0 W/m2 CLR
12:04 29.4 °C 16.9 °C 1015.1 hPa NNE 7.4 km/h 7.4 km/h 47 % 0.0 mm 775.0 W/m2 CLR
12:09 29.4 °C 16.9 °C 1015.1 hPa Calm     47 % 0.0 mm 788.0 W/m2 CLR
12:14 29.6 °C 17.1 °C 1015.1 hPa ENE 11.3 km/h 11.3 km/h 47 % 0.0 mm 796.0 W/m2 CLR
12:19 29.7 °C 16.9 °C 1015.1 hPa ENE 7.4 km/h 7.4 km/h 46 % 0.0 mm 802.0 W/m2 CLR
12:24 29.4 °C 16.9 °C 1015.1 hPa SE 5.6 km/h 5.6 km/h 47 % 0.0 mm 812.0 W/m2 CLR
12:29 29.7 °C 17.2 °C 1015.1 hPa ENE 7.4 km/h 7.4 km/h 47 % 0.0 mm 817.0 W/m2 CLR
12:34 29.6 °C 16.7 °C 1015.1 hPa East 8.0 km/h 8.0 km/h 46 % 0.0 mm 824.0 W/m2 CLR
12:39 29.4 °C 16.9 °C 1014.8 hPa ESE 9.3 km/h 9.3 km/h 47 % 0.0 mm 831.0 W/m2 CLR
12:44 29.6 °C 17.1 °C 1014.8 hPa ENE 9.3 km/h 9.3 km/h 47 % 0.0 mm 840.0 W/m2 CLR
12:49 29.8 °C 17.6 °C 1014.8 hPa NE 9.3 km/h 9.3 km/h 48 % 0.0 mm 846.0 W/m2 CLR
12:54 30.1 °C 17.2 °C 1014.8 hPa NNE 1.9 km/h   46 % 0.0 mm 851.0 W/m2 CLR
12:59 30.1 °C 17.2 °C 1014.8 hPa East 7.4 km/h 7.4 km/h 46 % 0.0 mm 854.0 W/m2 CLR
13:04 30.2 °C 17.3 °C 1014.8 hPa Calm     46 % 0.0 mm 858.0 W/m2 CLR
13:09 30.2 °C 16.9 °C 1014.8 hPa ENE 1.9 km/h 1.9 km/h 45 % 0.0 mm 865.0 W/m2 CLR
13:14 30.3 °C 16.7 °C 1014.8 hPa ESE 5.6 km/h 5.6 km/h 44 % 0.0 mm 874.0 W/m2 CLR
13:19 30.4 °C 16.4 °C 1014.8 hPa Calm     43 % 0.0 mm 875.0 W/m2 CLR
13:24 30.7 °C 16.3 °C 1014.8 hPa Calm     42 % 0.0 mm 882.0 W/m2 CLR
13:29 31.1 °C 16.6 °C 1014.8 hPa NNE 9.7 km/h 9.7 km/h 42 % 0.0 mm 882.0 W/m2 CLR
13:34 31.3 °C 16.5 °C 1014.8 hPa NE 5.6 km/h   41 % 0.0 mm 888.0 W/m2 CLR
13:39 31.4 °C 16.6 °C 1014.8 hPa North 11.1 km/h 11.1 km/h 41 % 0.0 mm 889.0 W/m2 CLR
13:45 31.6 °C 16.7 °C 1014.8 hPa East 5.6 km/h 5.6 km/h 41 % 0.0 mm 891.0 W/m2 CLR
13:50 31.5 °C 17.1 °C 1014.8 hPa ENE 5.6 km/h 5.6 km/h 42 % 0.0 mm 896.0 W/m2 CLR
13:55 31.5 °C 17.1 °C 1014.4 hPa Calm     42 % 0.0 mm 895.0 W/m2 CLR
14:00 31.7 °C 17.2 °C 1014.4 hPa North 9.3 km/h 9.3 km/h 42 % 0.0 mm 898.0 W/m2 CLR
14:05 31.8 °C 16.9 °C 1014.4 hPa ENE 9.3 km/h 9.3 km/h 41 % 0.0 mm 900.0 W/m2 CLR
14:10 31.7 °C 16.8 °C 1014.4 hPa Calm     41 % 0.0 mm 898.0 W/m2 CLR
14:15 31.6 °C 16.8 °C 1014.1 hPa Calm     41 % 0.0 mm 898.0 W/m2 CLR
14:20 31.6 °C 16.7 °C 1014.1 hPa Calm     41 % 0.0 mm 898.0 W/m2 CLR
14:25 31.7 °C 16.8 °C 1014.1 hPa ESE 7.4 km/h 7.4 km/h 41 % 0.0 mm 893.0 W/m2 CLR
14:30 31.7 °C 17.2 °C 1014.1 hPa Calm     42 % 0.0 mm 895.0 W/m2 CLR
14:35 32.1 °C 17.2 °C 1013.8 hPa NNW 5.6 km/h 5.6 km/h 41 % 0.0 mm 893.0 W/m2 CLR
14:40 32.4 °C 17.1 °C 1013.8 hPa NE 7.4 km/h 7.4 km/h 40 % 0.0 mm 895.0 W/m2 CLR
14:45 32.7 °C 17.3 °C 1013.8 hPa Calm     40 % 0.0 mm 888.0 W/m2 CLR
14:50 32.9 °C 17.1 °C 1013.8 hPa Calm     39 % 0.0 mm 882.0 W/m2 CLR
14:55 33.3 °C 17.4 °C 1013.8 hPa NNE 9.3 km/h 9.3 km/h 39 % 0.0 mm 886.0 W/m2 CLR
15:00 33.2 °C 17.4 °C 1013.4 hPa Calm     39 % 0.0 mm 874.0 W/m2 CLR
15:05 33.4 °C 17.6 °C 1013.4 hPa NE 14.8 km/h 14.8 km/h 39 % 0.0 mm 867.0 W/m2 CLR
15:10 33.5 °C 17.2 °C 1013.4 hPa NE 7.4 km/h 7.4 km/h 38 % 0.0 mm 863.0 W/m2 CLR
15:15 33.7 °C 17.4 °C 1013.4 hPa NNE 3.7 km/h   38 % 0.0 mm 860.0 W/m2 CLR
15:20 33.7 °C 17.4 °C 1013.4 hPa ENE 5.6 km/h 5.6 km/h 38 % 0.0 mm 856.0 W/m2 CLR
15:25 33.8 °C 17.9 °C 1013.4 hPa NNE 7.4 km/h 7.4 km/h 39 % 0.0 mm 844.0 W/m2 CLR
15:30 33.7 °C 17.4 °C 1013.4 hPa Calm     38 % 0.0 mm 837.0 W/m2 CLR
15:35 33.8 °C 17.6 °C 1013.1 hPa Calm     38 % 0.0 mm 830.0 W/m2 CLR
15:40 34.1 °C 18.6 °C 1013.1 hPa NE 11.1 km/h 11.1 km/h 40 % 0.0 mm 830.0 W/m2 CLR
15:45 34.2 °C 18.7 °C 1013.1 hPa ENE 11.1 km/h 11.1 km/h 40 % 0.0 mm 810.0 W/m2 CLR
15:50 34.2 °C 19.1 °C 1013.1 hPa NE 14.8 km/h 14.8 km/h 41 % 0.0 mm 795.0 W/m2 CLR
15:55 34.2 °C 19.1 °C 1013.1 hPa ENE 3.7 km/h   41 % 0.0 mm 798.0 W/m2 CLR
16:00 34.2 °C 19.5 °C 1013.1 hPa Calm   0.5 km/h 42 % 0.0 mm 773.0 W/m2 CLR
16:05 34.3 °C 19.2 °C 1012.8 hPa NE 5.6 km/h 5.6 km/h 41 % 0.0 mm 768.0 W/m2 CLR
16:10 34.6 °C 19.4 °C 1012.8 hPa NE 9.3 km/h 9.3 km/h 41 % 0.0 mm 759.0 W/m2 CLR
16:15 34.7 °C 19.1 °C 1012.8 hPa NNE 16.7 km/h 16.7 km/h 40 % 0.0 mm 747.0 W/m2 CLR
16:20 34.7 °C 19.1 °C 1012.8 hPa NNE 5.6 km/h 5.6 km/h 40 % 0.0 mm 745.0 W/m2 CLR
16:25 34.6 °C 19.8 °C 1012.8 hPa ESE 14.8 km/h 14.8 km/h 42 % 0.0 mm 724.0 W/m2 CLR
16:30 34.3 °C 19.6 °C 1012.8 hPa SE 9.3 km/h 9.3 km/h 42 % 0.0 mm 714.0 W/m2 CLR
16:35 34.3 °C 19.5 °C 1012.8 hPa ENE 14.8 km/h 14.8 km/h 42 % 0.0 mm 714.0 W/m2 CLR
16:41 34.0 °C 19.3 °C 1012.4 hPa ESE 9.3 km/h 9.3 km/h 42 % 0.0 mm 700.0 W/m2 CLR
16:46 33.8 °C 19.1 °C 1012.4 hPa South 11.1 km/h 11.1 km/h 42 % 0.0 mm 687.0 W/m2 CLR
16:51 33.7 °C 19.3 °C 1012.4 hPa SSE 11.1 km/h 11.1 km/h 43 % 0.0 mm 680.0 W/m2 CLR
16:56 33.6 °C 19.7 °C 1012.4 hPa East 13.0 km/h 13.0 km/h 44 % 0.0 mm 661.0 W/m2 CLR
17:01 33.8 °C 19.8 °C 1012.4 hPa ESE 8.0 km/h 8.0 km/h 44 % 0.0 mm 650.0 W/m2 CLR
17:06 34.0 °C 19.3 °C 1012.4 hPa East 13.0 km/h 13.0 km/h 42 % 0.0 mm 636.0 W/m2 CLR
17:11 34.1 °C 20.1 °C 1012.4 hPa ENE 16.7 km/h 16.7 km/h 44 % 0.0 mm 624.0 W/m2 CLR
17:16 34.1 °C 20.1 °C 1012.4 hPa ENE 14.8 km/h 14.8 km/h 44 % 0.0 mm 619.0 W/m2 CLR
17:21 33.9 °C 20.0 °C 1012.4 hPa Calm     44 % 0.0 mm 598.0 W/m2 CLR
17:26 34.1 °C 20.1 °C 1012.4 hPa East 9.3 km/h 9.3 km/h 44 % 0.0 mm 582.0 W/m2 CLR
17:31 34.1 °C 20.1 °C 1012.1 hPa ESE 8.0 km/h 8.0 km/h 44 % 0.0 mm 571.0 W/m2 CLR
17:36 34.1 °C 19.7 °C 1012.1 hPa Calm     43 % 0.0 mm 559.0 W/m2 CLR
17:41 34.2 °C 19.8 °C 1012.1 hPa ENE 11.1 km/h 11.1 km/h 43 % 0.0 mm 547.0 W/m2 CLR
17:46 34.1 °C 20.1 °C 1012.1 hPa ESE 11.3 km/h 11.3 km/h 44 % 0.0 mm 533.0 W/m2 CLR
17:51 33.7 °C 19.7 °C 1012.1 hPa East 14.5 km/h 14.5 km/h 44 % 0.0 mm 520.0 W/m2 CLR
17:56 33.6 °C 19.7 °C 1012.1 hPa ENE 18.5 km/h 18.5 km/h 44 % 0.0 mm 499.0 W/m2 CLR
18:01 33.6 °C 20.1 °C 1012.1 hPa ESE 11.1 km/h 11.1 km/h 45 % 0.0 mm 489.0 W/m2 CLR
18:06 33.4 °C 19.8 °C 1012.1 hPa ESE 16.7 km/h 16.7 km/h 45 % 0.0 mm 476.0 W/m2 CLR
18:16 33.3 °C 19.7 °C 1012.1 hPa ESE 11.3 km/h 11.3 km/h 45 % 0.0 mm 452.0 W/m2 CLR
18:21 33.2 °C 19.3 °C 1012.1 hPa East 14.8 km/h 14.8 km/h 44 % 0.0 mm 432.0 W/m2 CLR
18:26 33.2 °C 19.3 °C 1012.1 hPa East 13.0 km/h 13.0 km/h 44 % 0.0 mm 417.0 W/m2 CLR
18:31 32.9 °C 19.1 °C 1012.1 hPa SE 16.7 km/h 16.7 km/h 44 % 0.0 mm 401.0 W/m2 CLR
18:36 32.7 °C 18.9 °C 1012.1 hPa ESE 16.7 km/h 16.7 km/h 44 % 0.0 mm 388.0 W/m2 CLR
18:41 32.6 °C 19.1 °C 1012.1 hPa ESE 14.8 km/h 14.8 km/h 45 % 0.0 mm 371.0 W/m2 CLR
18:46 32.6 °C 19.1 °C 1012.1 hPa SE 16.7 km/h 16.7 km/h 45 % 0.0 mm 357.0 W/m2 CLR
18:51 32.5 °C 19.1 °C 1012.1 hPa ESE 16.7 km/h 16.7 km/h 45 % 0.0 mm 343.0 W/m2 CLR
18:56 32.3 °C 19.2 °C 1012.1 hPa ESE 13.0 km/h 13.0 km/h 46 % 0.0 mm 329.0 W/m2 CLR
19:02 32.3 °C 19.2 °C 1012.1 hPa ESE 13.0 km/h 13.0 km/h 46 % 0.0 mm 315.0 W/m2 CLR
19:07 32.2 °C 19.5 °C 1012.4 hPa ESE 13.0 km/h 13.0 km/h 47 % 0.0 mm 297.0 W/m2 CLR
19:12 32.1 °C 19.4 °C 1012.1 hPa ESE 14.8 km/h 14.8 km/h 47 % 0.0 mm 287.0 W/m2 CLR
19:17 31.9 °C 19.2 °C 1012.1 hPa ESE 14.8 km/h 14.8 km/h 47 % 0.0 mm 272.0 W/m2 CLR
19:22 31.8 °C 19.4 °C 1012.1 hPa SE 9.3 km/h 9.3 km/h 48 % 0.0 mm 257.0 W/m2 CLR
19:27 31.9 °C 18.8 °C 1012.1 hPa ESE 13.0 km/h 13.0 km/h 46 % 0.0 mm 236.0 W/m2 CLR
19:32 31.9 °C 19.5 °C 1012.1 hPa SE 13.0 km/h 13.0 km/h 48 % 0.0 mm 221.0 W/m2 CLR
19:37 31.8 °C 18.7 °C 1012.1 hPa ESE 13.0 km/h 13.0 km/h 46 % 0.0 mm 207.0 W/m2 CLR
19:42 31.6 °C 18.9 °C 1012.1 hPa East 13.0 km/h 13.0 km/h 47 % 0.0 mm 193.0 W/m2 CLR
19:47 31.5 °C 18.8 °C 1012.1 hPa ESE 9.3 km/h 9.3 km/h 47 % 0.0 mm 176.0 W/m2 CLR
19:52 31.4 °C 19.1 °C 1012.1 hPa East 11.1 km/h 11.1 km/h 48 % 0.0 mm 163.0 W/m2 CLR
19:57 31.3 °C 19.3 °C 1012.1 hPa SE 6.4 km/h 6.4 km/h 49 % 0.0 mm 148.0 W/m2 CLR
20:02 31.2 °C 19.2 °C 1012.1 hPa SE 13.0 km/h 13.0 km/h 49 % 0.0 mm 134.0 W/m2 CLR
20:07 30.9 °C 19.6 °C 1012.1 hPa SE 14.8 km/h 14.8 km/h 51 % 0.0 mm 116.0 W/m2 CLR
20:17 30.5 °C 19.2 °C 1012.1 hPa SE 13.0 km/h 13.0 km/h 51 % 0.0 mm 91.0 W/m2 CLR
20:22 30.4 °C 18.8 °C 1012.1 hPa SE 11.1 km/h 11.1 km/h 50 % 0.0 mm 79.0 W/m2 FEW
20:27 30.4 °C 19.1 °C 1012.1 hPa ESE 11.1 km/h 11.1 km/h 51 % 0.0 mm 69.0 W/m2 FEW
20:32 30.4 °C 19.4 °C 1012.1 hPa Calm     52 % 0.0 mm 56.0 W/m2 SCT
20:37 30.3 °C 18.7 °C 1012.1 hPa SE 9.3 km/h 9.3 km/h 50 % 0.0 mm 40.0 W/m2 BKN
20:42 30.3 °C 19.1 °C 1012.1 hPa Calm     51 % 0.0 mm 35.0 W/m2 BKN
20:47 30.3 °C 18.7 °C 1012.4 hPa Calm     50 % 0.0 mm 28.0 W/m2 BKN
20:52 30.2 °C 18.9 °C 1012.4 hPa ESE 9.7 km/h 9.7 km/h 51 % 0.0 mm 23.0 W/m2 BKN
20:57 29.9 °C 19.3 °C 1012.4 hPa ESE 7.4 km/h 7.4 km/h 53 % 0.0 mm 19.0 W/m2 BKN
21:02 29.6 °C 19.3 °C 1012.4 hPa Calm     54 % 0.0 mm 14.0 W/m2 BKN
21:07 29.5 °C 18.9 °C 1012.4 hPa SSE 9.3 km/h 9.3 km/h 53 % 0.0 mm 11.0 W/m2 BKN
21:12 29.5 °C 18.9 °C 1012.4 hPa SE 7.4 km/h 7.4 km/h 53 % 0.0 mm 7.0 W/m2 BKN
21:17 29.4 °C 18.8 °C 1012.4 hPa SE 5.6 km/h 5.6 km/h 53 % 0.0 mm 5.0 W/m2 OVC
21:22 29.3 °C 19.0 °C 1012.4 hPa Calm     54 % 0.0 mm 0.0 W/m2 OVC
21:23 29.3 °C 19.0 °C 1012.4 hPa Calm     54 % 0.0 mm 0.0 W/m2 OVC
21:28 29.1 °C 18.8 °C 1012.4 hPa Calm     54 % 0.0 mm 0.0 W/m2 OVC
21:33 29.0 °C 19.1 °C 1012.4 hPa Calm     55 % 0.0 mm 0.0 W/m2 CLR
21:38 28.8 °C 19.1 °C 1012.4 hPa Calm     56 % 0.0 mm 0.0 W/m2 CLR
21:43 28.6 °C 19.3 °C 1012.4 hPa Calm     57 % 0.0 mm 0.0 W/m2 CLR
21:48 28.4 °C 19.1 °C 1012.8 hPa Calm     57 % 0.0 mm 0.0 W/m2 CLR
21:53 28.2 °C 19.1 °C 1012.8 hPa Calm     58 % 0.0 mm 0.0 W/m2 CLR
21:58 28.0 °C 18.9 °C 1012.8 hPa Calm     58 % 0.0 mm 0.0 W/m2 CLR
22:03 27.9 °C 18.9 °C 1012.8 hPa Calm     58 % 0.0 mm 0.0 W/m2 CLR
22:08 27.8 °C 18.8 °C 1012.8 hPa Calm     58 % 0.0 mm 0.0 W/m2 CLR
22:13 27.7 °C 18.7 °C 1013.1 hPa Calm     58 % 0.0 mm 0.0 W/m2 CLR
22:18 27.7 °C 18.9 °C 1013.1 hPa ESE 3.7 km/h   59 % 0.0 mm 0.0 W/m2 CLR
22:23 27.7 °C 18.7 °C 1013.1 hPa Calm   0.2 km/h 58 % 0.0 mm 0.0 W/m2 CLR
22:29 27.6 °C 18.6 °C 1013.1 hPa Calm     58 % 0.0 mm 0.0 W/m2 CLR
22:34 27.5 °C 18.5 °C 1013.1 hPa Calm     58 % 0.0 mm 0.0 W/m2 CLR
22:39 27.4 °C 18.7 °C 1013.4 hPa Calm     59 % 0.0 mm 0.0 W/m2 CLR
22:44 27.2 °C 18.8 °C 1013.4 hPa Calm     60 % 0.0 mm 0.0 W/m2 CLR
22:49 27.1 °C 18.9 °C 1013.4 hPa Calm     61 % 0.0 mm 0.0 W/m2 CLR
22:54 27.0 °C 18.8 °C 1013.1 hPa Calm     61 % 0.0 mm 0.0 W/m2 CLR
22:59 26.8 °C 18.9 °C 1013.4 hPa Calm     62 % 0.0 mm 0.0 W/m2 CLR
23:04 26.6 °C 19.0 °C 1013.4 hPa Calm     63 % 0.0 mm 0.0 W/m2 CLR
23:09 26.5 °C 18.9 °C 1013.4 hPa Calm     63 % 0.0 mm 0.0 W/m2 CLR
23:14 26.3 °C 19.0 °C 1013.4 hPa Calm     64 % 0.0 mm 0.0 W/m2 CLR
23:19 26.2 °C 19.1 °C 1013.4 hPa Calm     65 % 0.0 mm 0.0 W/m2 CLR
23:24 26.1 °C 19.3 °C 1013.4 hPa Calm     66 % 0.0 mm 0.0 W/m2 CLR
23:29 26.1 °C 19.3 °C 1013.4 hPa Calm     66 % 0.0 mm 0.0 W/m2 CLR
23:34 26.0 °C 19.2 °C 1013.4 hPa Calm     66 % 0.0 mm 0.0 W/m2 CLR
23:39 25.8 °C 19.2 °C 1013.8 hPa Calm     67 % 0.0 mm 0.0 W/m2 CLR
23:44 25.6 °C 19.4 °C 1013.4 hPa Calm     69 % 0.0 mm 0.0 W/m2 CLR
23:49 25.4 °C 19.3 °C 1013.4 hPa Calm     69 % 0.0 mm 0.0 W/m2 CLR
23:54 25.3 °C 19.4 °C 1013.4 hPa Calm     70 % 0.0 mm 0.0 W/m2 CLR
23:59 25.2 °C 19.3 °C 1013.8 hPa Calm     70 % 0.0 mm 0.0 W/m2 CLR
Lo Temps de Massalio
Compliments of Weather Underground - 1.25 mb